Volver al catálogo

STARLINK-32931

ActivoComunicacionesVLEO
NORAD 63199·PAYLOAD·🇺🇸 United States

Lanzado Mar 13, 2025 desde Cape Canaveral Space Force Station

Loading…

Próximos Pases (próximas 24 horas)

TLE

ActualizadoSource: CelesTrak SupGP

Época: Sep 14, 2026, 21:18 UTC

1 63199C 25048S   26257.88798611  .00030604  00000+0  11088-2 0  2576
2 63199  43.0004  96.8090 0000953 250.8319 259.5445 15.27553774    19

Sigue STARLINK-32931 en tiempo real con AllMySat

Download on the App Store